FW1784 Weather Reports


Display with metric or nautical units.
time (UTC)temp
F
wind
direction
speed
MPH
gust
MPH
rain 1hr
in
rain 24hr
in
rain mn
in
humidity
%
barometer
mb
20260507131603 51 43 2.0 5.0 0.00 0.46 0.00 51 1010.8
20260507130003 50 40 1.0 7.0 0.00 0.46 0.00 56 1010.6
20260507124501 50 46 2.0 5.0 0.00 0.46 0.00 58 1010.5
20260507123002 50 100 0.0 2.0 0.00 0.46 0.00 56 1010.5
20260507121604 49 298 0.0 3.0 0.00 0.46 0.00 62 1010.4
20260507120005 48 294 0.0 2.0 0.00 0.46 0.00 70 1010.4
20260507114503 46 294 1.0 2.0 0.00 0.46 0.00 71 1010.4
20260507113102 46 294 1.0 4.0 0.00 0.46 0.00 69 1010.4
20260507111503 45 224 1.0 6.0 0.00 0.46 0.00 76 1010.2
20260507110103 44 309 0.0 3.0 0.00 0.46 0.00 84 1010.1
20260507104502 43 221 0.0 5.0 0.00 0.46 0.00 93 1010.0
20260507103102 43 180 0.0 0.0 0.00 0.46 0.00 96 1009.7
20260507101644 43 180 0.0 0.0 0.00 0.46 0.00 96 1009.3
20260507094603 43 178 0.0 0.0 0.00 0.46 0.00 96 1008.8
20260507093004 43 178 0.0 0.0 0.00 0.46 0.00 96 1008.6
20260507091602 43 178 0.0 0.0 0.00 0.46 0.00 95 1008.6
20260507090007 44 178 0.0 0.0 0.00 0.46 0.00 95 1008.7
20260507084603 45 178 0.0 0.0 0.00 0.46 0.00 94 1008.7
20260507083003 45 178 0.0 0.0 0.00 0.46 0.00 94 1009.1
20260507081602 46 178 0.0 0.0 0.00 0.46 0.00 94 1009.0
20260507080003 46 40 0.0 0.0 0.00 0.46 0.00 96 1009.2
20260507074504 46 223 0.0 0.0 0.00 0.46 0.00 96 1009.2
20260507073109 46 223 0.0 0.0 0.00 0.46 0.00 96 1009.2
20260507071503 47 223 0.0 0.0 0.00 0.46 0.00 96 1009.1
20260507070004 47 223 0.0 0.0 0.00 0.46 0.00 96 1008.9
20260507064502 47 223 0.0 0.0 0.00 0.46 0.00 96 1008.4
20260507063002 47 223 0.0 0.0 0.00 0.46 0.00 96 1008.2
20260507061503 48 229 0.0 0.0 0.00 0.46 0.00 97 1008.1
20260507054602 49 229 0.0 0.0 0.00 0.46 0.00 97 1008.1
20260507053001 49 229 0.0 0.0 0.00 0.46 0.00 97 1008.0
20260507051601 49 229 0.0 0.0 0.00 0.46 0.00 97 1008.4
20260507044502 50 229 0.0 0.0 0.00 0.46 0.00 97 1008.4
20260507043002 50 229 0.0 0.0 0.00 0.46 0.00 97 1008.6
20260507041603 50 229 0.0 0.0 0.00 0.46 0.00 97 1008.2
20260507040047 50 229 0.0 0.0 0.00 0.46 0.00 97 1008.4
20260507034505 50 229 0.0 0.0 0.00 0.46 0.46 96 1008.2
20260507033127 50 229 0.0 0.0 0.00 0.46 0.46 96 1008.1
20260507031604 50 229 0.0 0.0 0.00 0.46 0.46 96 1008.1
20260507030003 50 229 0.0 0.0 0.00 0.46 0.46 96 1008.2
20260507024506 50 229 0.0 0.0 0.00 0.46 0.46 96 1008.2
20260507023103 51 229 0.0 0.0 0.00 0.46 0.46 96 1008.2
20260507021503 51 229 0.0 0.0 0.00 0.46 0.46 95 1008.3
20260507020001 51 208 0.0 0.0 0.00 0.46 0.46 96 1008.1
20260507014507 52 208 0.0 0.0 0.00 0.46 0.46 96 1007.9
20260507013003 52 208 0.0 2.0 0.00 0.46 0.46 96 1007.7
20260507011506 53 281 0.0 4.0 0.00 0.46 0.46 95 1007.3
20260507004502 56 169 0.0 0.0 0.00 0.46 0.46 96 1006.7
20260507003115 56 169 0.0 0.0 0.00 0.46 0.46 96 1006.3
20260507001503 56 169 0.0 0.0 0.01 0.46 0.46 97 1006.5
20260506234607 57 23 0.0 0.0 0.01 0.46 0.46 96 1005.6
20260506233102 58 68 0.0 2.0 0.01 0.46 0.46 96 1005.6
20260506231503 60 232 0.0 13.0 0.00 0.45 0.45 98 1005.3
20260506230107 60 173 0.0 0.0 0.00 0.45 0.45 98 1004.9
20260506224608 61 173 0.0 0.0 0.00 0.45 0.45 98 1004.7
20260506223002 61 202 0.0 0.0 0.00 0.45 0.45 98 1004.4
20260506221503 61 202 0.0 1.0 0.00 0.45 0.45 98 1004.4
20260506220104 60 170 0.0 1.0 0.00 0.45 0.45 98 1004.2
20260506214520 60 161 0.0 3.0 0.00 0.45 0.45 98 1004.1
20260506213002 60 199 0.0 0.0 0.01 0.45 0.45 98 1004.0
20260506211603 60 214 0.0 2.0 0.01 0.45 0.45 98 1003.9
20260506204621 60 171 0.0 7.0 0.01 0.45 0.45 97 1003.9
20260506203023 60 201 0.0 6.0 0.00 0.44 0.44 97 1003.9
20260506201503 60 232 0.0 7.0 0.00 0.44 0.44 97 1003.9
20260506200105 60 194 0.0 5.0 0.01 0.44 0.44 97 1004.1
20260506194602 60 232 1.0 5.0 0.01 0.44 0.44 97 1004.1
20260506193002 61 223 1.0 8.0 0.01 0.44 0.44 97 1004.3
20260506191603 61 211 0.0 7.0 0.01 0.44 0.44 98 1004.4
20260506184602 60 232 1.0 7.0 0.01 0.43 0.43 97 1004.6
20260506183003 60 191 1.0 12.0 0.02 0.43 0.43 97 1004.8
20260506181502 60 203 3.0 10.0 0.05 0.43 0.43 97 1004.9
20260506180107 60 274 1.0 9.0 0.07 0.43 0.43 97 1005.1
20260506174603 60 210 0.0 2.0 0.08 0.42 0.42 97 1005.0
20260506173003 60 280 0.0 5.0 0.09 0.41 0.41 97 1005.0
20260506171624 60 245 0.0 4.0 0.10 0.38 0.38 97 1005.0
20260506170005 60 243 0.0 2.0 0.11 0.36 0.36 97 1005.3
20260506164521 60 243 0.0 2.0 0.11 0.34 0.34 97 1005.2
20260506163002 60 234 0.0 3.0 0.12 0.32 0.32 96 1005.7
20260506161642 60 213 1.0 4.0 0.11 0.28 0.28 96 1006.1
20260506160003 60 207 0.0 3.0 0.12 0.25 0.25 96 1006.3
20260506154503 60 155 0.0 1.0 0.13 0.23 0.23 96 1006.3
20260506153003 60 238 0.0 7.0 0.13 0.20 0.20 96 1006.3
20260506151604 60 211 0.0 4.0 0.11 0.17 0.17 95 1006.4
20260506150002 60 236 0.0 5.0 0.09 0.13 0.13 95 1006.6
20260506144504 60 212 0.0 3.0 0.09 0.10 0.10 95 1006.7
20260506143101 61 169 0.0 4.0 0.08 0.08 0.08 94 1006.6
20260506141602 61 263 0.0 2.0 0.06 0.06 0.06 93 1006.8
20260506140002 61 273 0.0 0.0 0.04 0.04 0.04 91 1006.8
20260506134504 62 213 1.0 4.0 0.01 0.01 0.01 87 1006.9
20260506133103 64 156 0.0 3.0 0.00 0.00 0.00 84 1006.5